sat.trackr.live / text

‹ back to catalog

ONEWEB-0165

NORAD 48233 · 2021-031Z

PAYLOAD ACTIVE UNKNOWN

§ Identity

Operator
Country
UK
Launch date
2021-04-25
Launch site
VOSTO
Launch vehicle
Mass (kg)
RCS (m²)

Purposes: comms

External: N2YO · Heavens-Above · Gunter

§ Orbital elements

Epoch: 2026-05-25T03:17:59.637120Z

Period
109.55 min
Inclination
87.8943°
Eccentricity
0.0001527
Mean motion
13.14501849 rev/d
Perigee alt
1,204.6 km
Apogee alt
1,207.0 km
Semi-major
7,583.9 km
B*
-6.0176e-4
RAAN
294.3073°
Arg perigee
103.8006°
Mean anomaly
256.3293°
Rev number
24,533

§ Raw data

ONEWEB-01651 48233U 21031Z   26145.13749580 -.00000210  00000+0 -60176-3 0  99992 48233  87.8943 294.3073 0001527 103.8006 256.3293 13.14501849245335

JSON: /api/v1/satellites/48233 · /tle

For live sub-satellite position, see the globe view (requires WebGL).

§ Visibility from observer

Set your observer location to see the next 7 days of passes ≥ 10°. The values pass through the URL so the page stays shareable.

No JS? Fill the form by hand. The geolocation button needs JavaScript.